ラッセル第4彗星

94P/Russell 4 (2016)

English version
Home page
Updated on June 3, 2017

---------------------------------------------------------------------

・ プロフィール

・ 写真集

・ 軌道要素

Epoch 2016 Oct. 19.0 TT = JDT 2457680.5
T 2016 Oct. 27.66970 TT                                 MPC
q   2.2299884            (2000.0)            P               Q
n   0.14982441     Peri.   92.77361     -0.95409129     -0.28168333
a   3.5108667      Node    70.88159     +0.21363823     -0.87824388
e   0.3648325      Incl.    6.18553     +0.20992504     -0.38644817
P   6.58
From 962 observations 1984 Mar. 2-2011 June 7, mean residual 0".6.

・ 光度変化

        H = 14.5  G = 0.15             [    ,-200]  (              〜2016年 4月10日)
        m1 = 3.0 + 5 logΔ + 35 log r  [-200, 170]  (2016年 4月10日〜2017年 4月15日)
        H = 14.5  G = 0.15             [ 170,    ]  (2017年 4月15日〜              )

---------------------------------------------------------------------

軌道要素はM.P.E.C. 2013-O31に掲載されたものです。
光度グラフはComet for Windowsで作成したものです。

---------------------------------------------------------------------

Copyright(C) Seiichi Yoshida (comet@aerith.net). All rights reserved.